Flight Track Log - Related Links

Times and Time Zones

All times are in EDT time to prevent confusion due to time zone crossing. See the SWA1462 flight status page for this flight to view local times or setup timezone preferences in your user account.

Time Position Orientation Groundspeed Altitude Reporting Facility
EDT Latitude Longitude Course Direction KTS MPH feet Rate Location/Type
Sun 11:53:31 AM 36.0750 -115.1633 261° West 139 160 3,000  Level Los Angeles Center
Sun 11:54:56 AM 36.0631 -115.2575 261° West 224 258 5,700 1,714 Climbing Los Angeles Center
Sun 11:55:16 AM 36.0483 -115.2656 204° Southwest 220 253 6,000 2,323 Climbing Los Angeles Center
Sun 11:55:58 AM 35.9947 -115.2906 201° Southwest 266 306 8,100 2,806 Climbing Los Angeles Center
Sun 11:56:18 AM 35.9769 -115.2981 199° South 259 298 8,900 2,900 Climbing Los Angeles Center
Sun 11:56:58 AM 35.9336 -115.3478 223° Southwest 281 323 11,000 2,323 Climbing Los Angeles Center
Sun 11:57:20 AM 35.9178 -115.3664 224° Southwest 280 322 11,300 2,429 Climbing Los Angeles Center
Sun 11:58:22 AM 35.8867 -115.4747 251° West 335 386 14,400 3,268 Climbing Los Angeles Center
Sun 11:59:23 AM 35.8900 -115.6069 272° West 351 404 18,000 2,878 Climbing Los Angeles Center
Sun 12:00:25 PM 35.8911 -115.7411 271° West 364 419 20,300 2,371 Climbing Los Angeles Center
Sun 12:01:27 PM 35.8931 -115.8728 271° West 382 440 22,900 2,274 Climbing Los Angeles Center
Sun 12:02:29 PM 35.9156 -115.9900 283° West 395 455 25,000 2,081 Climbing Los Angeles Center
Sun 12:03:31 PM 36.0025 -116.0933 316° Northwest 399 459 27,200 1,839 Climbing Los Angeles Center
Sun 12:04:33 PM 36.0864 -116.1889 317° Northwest 407 468 28,800 1,902 Climbing Los Angeles Center
Sun 12:05:34 PM 36.1806 -116.2986 317° Northwest 422 486 31,100 2,195 Climbing Los Angeles Center
Sun 12:06:36 PM 36.2647 -116.3961 317° Northwest 416 479 33,300 2,032 Climbing Los Angeles Center
Sun 12:07:38 PM 36.3456 -116.4897 317° Northwest 406 467 35,300 1,694 Climbing Los Angeles Center
Sun 12:08:40 PM 36.4253 -116.5831 317° Northwest 398 458 36,800 1,306 Climbing Los Angeles Center
Sun 12:09:42 PM 36.5053 -116.6753 317° Northwest 395 455 38,000 581 Climbing Los Angeles Center
Sun 12:10:44 PM 36.5994 -116.7786 319° Northwest 397 457 38,000  Level Los Angeles Center
Sun 12:11:46 PM 36.6958 -116.8467 330° Northwest 398 458 38,000  Level Los Angeles Center
Sun 12:12:48 PM 36.7964 -116.9233 329° Northwest 400 460 38,000  Level Los Angeles Center
Sun 12:13:50 PM 36.8850 -116.9906 329° Northwest 396 456 38,000  Level Los Angeles Center
Sun 12:14:46 PM 36.9783 -117.0639 328° Northwest 395 455 38,000  Level Oakland Center
Sun 12:15:47 PM 37.0728 -117.1367 328° Northwest 397 457 38,000  Level Oakland Center
Sun 12:16:48 PM 37.1303 -117.2439 304° West 387 445 38,000  Level Oakland Center
Sun 12:17:49 PM 37.1514 -117.3778 281° West 389 448 38,000  Level Oakland Center
Sun 12:18:50 PM 37.1711 -117.5103 281° West 387 445 38,000  Level Oakland Center
Sun 12:19:51 PM 37.1911 -117.6461 281° West 392 451 38,000  Level Oakland Center
Sun 12:20:52 PM 37.2106 -117.7808 280° West 391 450 38,000  Level Oakland Center
Sun 12:21:53 PM 37.2344 -117.9428 281° West 392 451 38,000 -293 Level Oakland Center
Sun 12:22:55 PM 37.2536 -118.0792 280° West 395 455 37,400 -732 Descending Oakland Center
Sun 12:23:56 PM 37.2731 -118.2169 280° West 399 459 36,500 -934 Descending Oakland Center
Sun 12:24:57 PM 37.2925 -118.3561 280° West 403 464 35,500 -934 Descending Oakland Center
Sun 12:25:58 PM 37.3086 -118.4786 279° West 408 470 34,600 -738 Descending Oakland Center
Sun 12:26:59 PM 37.3322 -118.6403 280° West 413 475 34,000 -295 Descending Oakland Center
Sun 12:28:00 PM 37.3517 -118.7847 280° West 417 480 34,000  Level Oakland Center
Sun 12:29:01 PM 37.3703 -118.9350 279° West 414 476 34,000  Level Oakland Center
Sun 12:30:02 PM 37.3894 -119.0783 280° West 416 479 34,000  Level Oakland Center
Sun 12:31:04 PM 37.4125 -119.2339 281° West 451 519 34,000  Level Oakland Center
Sun 12:32:05 PM 37.4314 -119.3761 280° West 419 482 34,000  Level Oakland Center
Sun 12:33:06 PM 37.4494 -119.5206 279° West 420 483 34,000  Level Oakland Center
Sun 12:34:07 PM 37.4675 -119.6650 279° West 416 479 34,000 -443 Level Oakland Center
Sun 12:35:08 PM 37.4858 -119.8133 279° West 425 489 33,100 -1,082 Descending Oakland Center
Sun 12:36:09 PM 37.5031 -119.9600 278° West 446 513 31,800 -1,317 Descending Oakland Center
Sun 12:37:11 PM 37.5222 -120.1097 279° West 437 503 30,400 -1,512 Descending Oakland Center
Sun 12:38:12 PM 37.5467 -120.2833 280° West 436 502 28,700 -1,721 Descending Oakland Center
Sun 12:39:13 PM 37.5650 -120.4372 279° West 441 507 26,900 -1,672 Descending Oakland Center
Sun 12:40:14 PM 37.5844 -120.5931 279° West 450 518 25,300 -1,370 Descending Oakland Center
Sun 12:40:45 PM 37.6000 -120.6833 282° West 442 509 24,800 -1,187 Descending Northern Cal TRACON
Sun 12:41:45 PM 37.6167 -120.8167 279° West 407 468 23,500 -1,300 Descending Northern Cal TRACON
Sun 12:42:45 PM 37.6167 -120.9500 270° West 368 423 22,200 -1,900 Descending Northern Cal TRACON
Sun 12:43:45 PM 37.6167 -121.0667 270° West 358 412 19,700 -2,368 Descending Northern Cal TRACON
Sun 12:44:39 PM 37.6000 -121.1833 260° West 355 409 17,700 -2,000 Descending Northern Cal TRACON
Sun 12:45:39 PM 37.5833 -121.2833 258° West 346 398 15,900 -1,850 Descending Northern Cal TRACON
Sun 12:46:39 PM 37.5833 -121.4167 270° West 331 381 14,000 -1,850 Descending Northern Cal TRACON
Sun 12:47:39 PM 37.5667 -121.5167 258° West 325 374 12,200 -1,500 Descending Northern Cal TRACON
Sun 12:48:39 PM 37.5500 -121.6333 260° West 315 362 11,000 -1,000 Descending Northern Cal TRACON
Sun 12:49:39 PM 37.5167 -121.7333 247° West 312 359 10,200 -1,050 Descending Northern Cal TRACON
Sun 12:50:39 PM 37.5000 -121.8333 258° West 290 334 8,900 -1,579 Descending Northern Cal TRACON
Sun 12:51:33 PM 37.4833 -121.9167 256° West 280 322 7,200 -1,526 Descending Northern Cal TRACON
Sun 12:52:33 PM 37.5000 -122.0000 284° West 263 303 6,000 -800 Descending Northern Cal TRACON
Sun 12:53:33 PM 37.5167 -122.0833 284° West 232 267 5,600 -605 Descending Northern Cal TRACON
Sun 12:54:32 PM 37.5369 -122.1433 293° West 215 247 4,800 -1,250 Descending Oakland Center
Sun 12:55:33 PM 37.5622 -122.2019 299° West 196 226 3,100 -1,574 Descending Oakland Center
Sun 12:56:34 PM 37.5822 -122.2639 292° West 193 222 1,600 -1,171 Descending Oakland Center
Sun 12:57:36 PM 37.5928 -122.3178 284° West 171 197 700 -634 Descending Oakland Center
Sun 12:58:37 PM 37.6153 -122.3692 299° West 162 186 300 -393 Descending Oakland Center
Sun 01:00:00 PM 37.6167 -122.3667 322° Northwest  Level FlightAware Approximate

Login

Don't have an account? Register now (free) for customized features, flight alerts, and more!